Simultaneous Nadir Overpasses (SNOs) Predictions

Prediction of SNOs between LANDSAT-8 and NPP Satellite Orbit:

Table of predicted SNOs for the next 14.0 days since TLE Epoch: 2/14/2014
Index Date (LANDSAT-8) Time (LANDSAT-8) Lat,Lon (LANDSAT-8) SZA (LANDSAT-8 ) Date (NPP) Time (NPP) Lat,Lon (NPP) SZA (NPP ) Distance(km) Time Diff (sec)
1 02/15/2014 05:20:20 -70.29, -83.26 96.99 02/15/2014 05:19:41 -70.26, -83.22 97.01 3.30 39
2 02/15/2014 06:09:47 70.20, 84.26 82.92 02/15/2014 06:10:26 70.20, 84.20 82.91 2.29 39
3 02/17/2014 20:47:15 70.71,-134.41 82.49 02/17/2014 20:46:04 70.78,-135.59 82.62 43.89 71
4 02/17/2014 21:36:51 -70.26, 32.56 97.95 02/17/2014 21:36:38 -70.27, 32.55 97.94 0.65 13
5 02/17/2014 22:26:18 70.17,-159.93 81.96 02/17/2014 22:27:22 70.15,-159.96 81.93 2.61 64
6 02/20/2014 13:03:56 70.34, -19.11 81.19 02/20/2014 13:02:53 70.32, -19.07 81.18 2.89 63
7 02/20/2014 13:53:26 -70.23, 148.36 98.93 02/20/2014 13:53:35 -70.22, 148.40 98.94 1.34 9
8 02/20/2014 14:43:01 69.70, -44.74 80.56 02/20/2014 14:44:11 69.69, -43.48 80.49 48.54 70
9 02/23/2014 05:20:34 70.30, 96.67 80.18 02/23/2014 05:19:50 70.29, 96.75 80.17 3.43 44
10 02/23/2014 06:10:04 -70.19, -95.85 99.94 02/23/2014 06:10:32 -70.19, -95.77 99.96 2.97 28
11 02/25/2014 21:37:14 70.32,-147.48 79.20 02/25/2014 21:36:48 70.32,-147.52 79.20 1.14 26
12 02/25/2014 22:26:44 -70.21, 20.00 100.92 02/25/2014 22:27:30 -70.21, 19.97 100.93 1.24 46
